CW4167 Weather Reports


time (UTC)temp
C
wind
direction
speed
KPH
gust
KPH
rain 1hr
cm
rain 24hr
cm
rain mn
cm
humidity
%
barometer
mb
20260903092209 16 171 16.1 25.7 0.05 0.58 0.28 93 1007.5
20260903091708 15 171 14.5 24.1 0.03 0.56 0.25 93 1007.5
20260903091210 15 163 9.7 22.5 0.03 0.56 0.25 93 1007.7
20260903084209 15 169 16.1 27.4 0.03 0.56 0.25 93 1008.0
20260903083708 15 160 11.3 20.9 0.05 0.56 0.25 93 1008.0
20260903082209 16 167 17.7 24.1 0.05 0.53 0.23 93 1008.2
20260903081709 16 172 16.1 25.7 0.05 0.53 0.23 93 1008.2
20260903081210 16 181 9.7 24.1 0.05 0.53 0.23 93 1008.3
20260903080210 15 162 6.4 16.1 0.08 0.53 0.23 93 1008.4
20260903073209 16 165 8.0 9.7 0.03 0.48 0.15 93 1008.7
20260903072208 16 171 6.4 9.7 0.03 0.48 0.15 93 1008.7
20260903071208 16 197 4.8 8.0 0.03 0.48 0.15 93 1008.8
20260903070711 16 210 3.2 8.0 0.00 0.46 0.13 93 1008.8
20260903065708 16 208 6.4 8.0 0.00 0.46 0.13 93 1008.9
20260903064708 16 174 9.7 16.1 0.00 0.46 0.13 93 1009.1
20260903064211 16 144 9.7 12.9 0.00 0.46 0.13 93 1009.1
20260903062710 16 159 8.0 12.9 0.03 0.46 0.13 93 1009.3
20260903062208 16 204 9.7 16.1 0.03 0.46 0.13 93 1009.4
20260903061710 16 189 8.0 12.9 0.03 0.46 0.13 93 1009.4
20260903061209 16 183 8.0 11.3 0.03 0.46 0.13 93 1009.4
20260903060708 16 171 4.8 11.3 0.03 0.46 0.13 93 1009.4
20260903055710 15 151 6.4 22.5 0.03 0.46 0.13 93 1009.5
20260903054208 15 192 6.4 11.3 0.03 0.46 0.13 93 1009.6
20260903053208 15 178 8.0 20.9 0.00 0.43 0.10 93 1009.7
20260903052709 15 182 11.3 16.1 0.00 0.43 0.10 93 1009.7
20260903052208 15 183 9.7 12.9 0.00 0.43 0.10 93 1009.8
20260903051208 15 165 11.3 22.5 0.03 0.43 0.10 93 1009.9
20260903050209 15 179 8.0 11.3 0.03 0.43 0.10 93 1010.0
20260903045708 15 191 8.0 12.9 0.03 0.43 0.10 93 1010.0
20260903044210 15 185 8.0 12.9 0.03 0.43 0.10 93 1010.2
20260903043707 15 169 8.0 11.3 0.03 0.43 0.10 93 1010.2
20260903043208 15 188 6.4 11.3 0.03 0.43 0.10 93 1010.3
20260903042208 15 197 6.4 12.9 0.03 0.43 0.10 93 1010.4
20260903040708 15 184 9.7 11.3 0.00 0.41 0.08 93 1010.5
20260903034208 15 230 4.8 11.3 0.00 0.41 0.08 92 1010.6
20260903033208 15 166 3.2 9.7 0.00 0.41 0.08 92 1010.7
20260903030709 15 189 4.8 12.9 0.00 0.41 0.08 92 1010.9
20260903025208 15 169 8.0 12.9 0.00 0.41 0.08 92 1010.9
20260903024708 15 180 8.0 11.3 0.00 0.41 0.08 92 1011.0
20260903024210 15 188 3.2 9.7 0.00 0.41 0.08 92 1011.0
20260903021708 15 196 8.0 12.9 0.03 0.43 0.08 92 1011.5
20260903020709 15 186 4.8 9.7 0.05 0.43 0.08 92 1011.5
20260903015209 15 188 8.0 9.7 0.08 0.43 0.08 92 1011.5
20260903013709 15 212 4.8 8.0 0.08 0.43 0.08 92 1011.7
20260903012209 15 196 6.4 11.3 0.08 0.43 0.08 92 1011.7
20260903010708 15 227 8.0 12.9 0.03 0.38 0.03 92 1011.9
20260903005207 14 189 8.0 11.3 0.00 0.36 0.00 92 1011.9
20260903004709 14 203 8.0 12.9 0.00 0.36 0.00 92 1011.9
20260903004208 14 202 6.4 11.3 0.00 0.36 0.00 92 1011.9
20260903003709 14 188 3.2 11.3 0.00 0.36 0.00 92 1011.9
20260903003209 14 184 4.8 9.7 0.00 0.36 0.00 92 1012.0
20260903000708 14 209 6.4 11.3 0.00 0.36 0.00 92 1012.1
20260903000207 14 200 3.2 8.0 0.00 0.36 0.00 92 1012.1
20260902235208 14 206 4.8 8.0 0.00 0.36 0.00 92 1012.2
20260902234707 14 200 3.2 9.7 0.00 0.36 0.00 92 1012.2
20260902234208 14 235 3.2 8.0 0.00 0.36 0.00 92 1012.3
20260902233208 14 227 4.8 11.3 0.00 0.36 0.00 92 1012.3
20260902232207 14 234 3.2 9.7 0.00 0.36 0.00 92 1012.4
20260902231707 14 247 6.4 12.9 0.00 0.36 0.00 92 1012.4
20260902231207 14 257 8.0 9.7 0.00 0.36 0.00 92 1012.4
20260902230208 14 226 8.0 12.9 0.00 0.36 0.00 92 1012.4
20260902225708 14 240 6.4 11.3 0.00 0.36 0.00 92 1012.4
20260902225209 14 256 4.8 9.7 0.00 0.36 0.00 92 1012.4
20260902224709 14 196 8.0 11.3 0.00 0.36 0.00 92 1012.4
20260902224209 14 242 4.8 9.7 0.00 0.36 0.00 92 1012.4
20260902223209 14 219 6.4 9.7 0.03 0.36 0.00 92 1012.5
20260902222207 14 217 4.8 11.3 0.03 0.36 0.00 92 1012.5
20260902220209 14 207 4.8 12.9 0.03 0.36 0.00 92 1012.4
20260902215708 14 225 9.7 24.1 0.03 0.36 0.36 92 1012.4
20260902215208 14 233 8.0 11.3 0.03 0.36 0.36 92 1012.4
20260902214708 14 188 6.4 12.9 0.03 0.36 0.36 92 1012.3
20260902214209 14 228 8.0 12.9 0.03 0.36 0.36 92 1012.3
20260902213207 14 207 8.0 11.3 0.03 0.36 0.36 92 1012.3
20260902212208 14 232 8.0 20.9 0.00 0.33 0.33 92 1012.3
20260902211707 14 206 9.7 22.5 0.00 0.33 0.33 92 1012.3
20260902211207 14 222 4.8 12.9 0.00 0.33 0.33 92 1012.3
20260902203208 14 200 8.0 16.1 0.00 0.33 0.33 91 1012.5
20260902202708 14 223 8.0 22.5 0.00 0.33 0.33 91 1012.5
20260902202210 14 180 6.4 12.9 0.00 0.33 0.33 91 1012.4
20260902201707 14 212 4.8 11.3 0.00 0.33 0.33 91 1012.4
20260902200708 14 189 11.3 16.1 0.00 0.33 0.33 91 1012.4
20260902194710 14 211 8.0 12.9 0.00 0.33 0.33 91 1012.5
20260902194207 14 184 8.0 20.9 0.00 0.33 0.33 91 1012.5
20260902192707 14 193 9.7 12.9 0.00 0.33 0.33 91 1012.5
20260902192207 14 206 6.4 11.3 0.00 0.33 0.33 91 1012.5
20260902191208 14 222 8.0 16.1 0.00 0.41 0.33 91 1012.6
20260902185709 14 229 6.4 12.9 0.00 0.41 0.33 91 1012.6
20260902184707 14 202 9.7 11.3 0.00 0.41 0.33 90 1012.5
20260902183707 14 199 8.0 12.9 0.00 0.41 0.33 90 1012.4
20260902182207 15 205 8.0 20.9 0.00 0.41 0.33 90 1012.2
20260902181207 15 230 4.8 11.3 0.00 0.41 0.33 90 1012.2
20260902180707 15 219 9.7 16.1 0.00 0.41 0.33 91 1012.2
20260902175708 15 223 8.0 20.9 0.00 0.41 0.33 91 1012.2
20260902175207 15 179 8.0 24.1 0.00 0.41 0.33 91 1012.2
20260902174207 15 209 9.7 24.1 0.00 0.41 0.33 91 1012.1
20260902172707 15 200 9.7 16.1 0.00 0.41 0.33 90 1012.1
20260902171707 16 203 14.5 24.1 0.03 0.41 0.33 90 1012.1
20260902170207 16 220 11.3 24.1 0.05 0.41 0.33 90 1012.2
20260902165207 16 208 12.9 24.1 0.08 0.41 0.33 90 1012.3
20260902163707 15 195 12.9 24.1 0.08 0.41 0.33 90 1012.4
20260902163209 15 203 9.7 16.1 0.08 0.41 0.33 90 1012.4
20260902162707 15 217 8.0 16.1 0.08 0.41 0.33 90 1012.4
20260902161708 15 230 9.7 12.9 0.05 0.38 0.30 89 1012.4
20260902161207 15 201 9.7 16.1 0.05 0.38 0.30 89 1012.5
20260902160707 15 194 11.3 24.1 0.03 0.36 0.28 89 1012.5
20260902160209 15 210 8.0 12.9 0.05 0.36 0.28 89 1012.6
20260902155709 15 241 8.0 14.5 0.03 0.33 0.25 89 1012.6
20260902154709 15 230 4.8 11.3 0.03 0.33 0.25 89 1012.6
20260902153207 16 178 11.3 12.9 0.05 0.33 0.25 90 1012.6
20260902152207 15 199 9.7 16.1 0.08 0.33 0.25 89 1012.6
20260902150709 15 202 9.7 24.1 0.15 0.33 0.25 89 1012.7
20260902145208 15 196 11.3 24.1 0.18 0.30 0.23 88 1012.8
20260902144708 15 212 9.7 12.9 0.18 0.30 0.23 88 1012.8
20260902144207 15 193 8.0 20.9 0.18 0.30 0.23 87 1012.7
20260902142709 15 210 14.5 22.5 0.15 0.28 0.18 85 1012.8
20260902142218 16 211 12.9 20.9 0.13 0.25 0.15 84 1012.5
20260902141715 16 249 3.2 11.3 0.10 0.23 0.13 83 1012.5
20260902141211 16 228 8.0 22.5 0.08 0.18 0.10 82 1012.5
20260902140710 17 234 14.5 25.7 0.05 0.15 0.08 80 1012.5
20260902135208 18 242 17.7 33.8 0.00 0.10 0.03 78 1012.5
20260902133208 19 221 16.1 32.2 0.00 0.10 0.03 75 1012.5
20260902132708 19 235 14.5 27.4 0.00 0.10 0.03 74 1012.5
20260902131711 20 223 14.5 40.2 0.00 0.10 0.03 73 1012.5
20260902131208 20 195 16.1 32.2 0.00 0.10 0.03 73 1012.5
20260902130709 20 229 17.7 33.8 0.00 0.10 0.03 72 1012.5
20260902125210 19 241 19.3 32.2 0.00 0.10 0.03 73 1012.5
20260902124208 19 224 16.1 33.8 0.00 0.10 0.03 74 1012.5
20260902123209 19 199 22.5 38.6 0.00 0.10 0.03 74 1012.5
20260902122708 19 231 16.1 27.4 0.00 0.10 0.03 75 1012.5
20260902121208 19 234 19.3 27.4 0.00 0.10 0.03 76 1012.7
20260902120207 19 206 19.3 32.2 0.00 0.10 0.03 77 1012.8
20260902115708 19 197 19.3 37.0 0.00 0.10 0.03 76 1012.8
20260902115208 19 230 14.5 29.0 0.00 0.10 0.03 75 1012.7
20260902114208 19 218 16.1 29.0 0.00 0.10 0.03 75 1012.8
20260902113208 19 223 22.5 37.0 0.00 0.10 0.03 74 1012.9
20260902110708 20 229 22.5 33.8 0.00 0.10 0.03 72 1012.9
20260902110207 20 254 16.1 35.4 0.00 0.10 0.03 71 1012.9
20260902104207 20 212 16.1 37.0 0.00 0.10 0.03 72 1013.0
20260902102209 20 274 8.0 33.8 0.00 0.10 0.03 75 1012.9
20260902101707 20 226 17.7 35.4 0.00 0.10 0.03 74 1012.9
20260902095707 19 233 14.5 29.0 0.00 0.10 0.03 76 1012.8
20260902094709 19 249 22.5 35.4 0.00 0.10 0.03 76 1012.8
20260902094206 19 245 17.7 27.4 0.00 0.10 0.03 74 1012.9
20260902093706 19 249 22.5 32.2 0.00 0.10 0.03 75 1012.9
20260902093206 19 249 16.1 38.6 0.00 0.10 0.03 77 1012.9
20260902092706 19 215 27.4 37.0 0.00 0.10 0.03 77 1012.8